Regional Weather Roundup
Issued by NWS

Home | Current Version | Previous Version | Text Only | Print | Product List | Glossary On
Versions: 1 2 3 4 5 6 7 8 9 10 11 12 13 14 15 16 17 18 19 20 21 22 23 24 25 26 27 28 29 30 31 32 33 34 35 36 37 38 39 40 41 42 43 44 45 46 47 48 49 50
000
ASUS42 KFFC 230303
RWRGA
WEATHER ROUNDUP FOR GEORGIA
NATIONAL WEATHER SERVICE PEACHTREE CITY GA
1100 PM EDT MON SEP 22 2014

NOTE: "FAIR" INDICATES FEW OR NO CLOUDS BELOW 12,000 FEET WITH NO
SIGNIFICANT WEATHER AND/OR OBSTRUCTIONS TO VISIBILITY.

* = USE WITH CAUTION. THE STATIONS MARKED WITH AN ASTERISK MAY NOT
REPORT WEATHER SUCH AS PRECIPITATION, FOG, OR THUNDER AND ARE NOT
QUALITY CONTROLLED BY NWS.

THE REMARK "TC" DENOTES TEMPERATURE READING IN DEGREES CELSIUS.

GAZ001>058-230400-
NORTH GEORGIA

CITY           SKY/WX    TMP DP  RH WIND       PRES   REMARKS
ATLANTA        PTCLDY    67  51  56 N9        30.12R
ATHENS         CLEAR     60  56  86 E5        30.13R
CHAMBLEE       CLEAR     63  51  65 N5        30.13R
PEACHTREE CITY CLEAR     59  56  89 CALM      30.13R
ROME           CLEAR     63  49  60 N7        30.13R
WEST ATLANTA   CLEAR     63  53  70 CALM      30.12R
GAINESVILLE    MOCLDY    66  59  78 E3        30.17R
CARTERSVILLE   CLEAR     60  51  72 CALM      30.14R


CITY           SKY/WX    TMP DP  RH WIND       PRES   REMARKS
DALTON*        CLEAR     61  52  72 N5        30.15R
MARIETTA       CLEAR     64  51  61 NE2       30.13R
KENNESAW*      CLEAR     63  48  59 CALM      30.15R
$$

GAZ059>098-102>109-230400-
CENTRAL GEORGIA

CITY           SKY/WX    TMP DP  RH WIND       PRES   REMARKS
AUGUSTA-BUSH   CLOUDY    65  63  93 NE5       30.10F
AUGUSTA-DANIEL CLOUDY    67  62  84 E5        30.12S
COLUMBUS       CLEAR     68  53  58 N7        30.08R
MACON          CLOUDY    65  65 100 CALM      30.09R
ROBINS AFB     MOCLDY    65  65  97 E2        30.08S


CITY           SKY/WX    TMP DP  RH WIND       PRES   REMARKS
LAGRANGE*      CLEAR     69  55  60 NE6       30.10F
SYLVANIA*      RAIN      70  69  98 E3        30.11S
$$

GAZ099>101-110>166-230400-
SOUTH GEORGIA

CITY           SKY/WX    TMP DP  RH WIND       PRES   REMARKS
SAVANNAH       CLOUDY    69  64  84 N3        30.09F
VALDOSTA       MOCLDY    73  63  70 E5        30.01F
ALMA           CLOUDY    71  65  81 VRB3      30.06R
ST SIMONS      MOCLDY    75  68  78 NE14      30.03F
FT STEWART     CLOUDY    68  64  88 NE7       30.07S
ALBANY         CLOUDY    69  67  93 N5        30.07R
HUNTER AFB     CLOUDY    69  66  90 NE13      30.07S
MOODY AFB      MOCLDY    72  63  73 NE7       30.02F
BRUNSWICK      MOCLDY    75  64  69 NE10      30.05F


CITY           SKY/WX    TMP DP  RH WIND       PRES   REMARKS
BAINBRIDGE*    PTCLDY    72  70  94 N5        30.03S
MOULTRIE*      PTCLDY    70  68  94 E5        30.06R
VIDALIA*       TSTM      66  64  94 E6        30.07S
WAYCROSS*      LGT RAIN  76  69  78 SE7       30.06R
DOUGLAS*       CLOUDY    73  64  73 NE7       30.07S
$$



USA.gov is the U.S. government's official web portal to all federal, state and local government web resources and services.